Time,TemperatureF,DewpointF,PressureIn,WindDirection,WindDirectionDegrees,WindSpeedMPH,WindSpeedGustMPH,Humidity,HourlyPrecipIn,Conditions,Clouds,dailyrainin,SoftwareType,DateUTC
2013-08-15 00:00:00,70.6,66.6,30.08,NE,45,9.0,17.0,87,0.00,,---,0.00,VWS V14.01,2013-08-15 04:00:00,
2013-08-15 00:01:00,70.6,66.6,30.08,NE,37,9.0,12.0,87,0.00,,---,0.00,VWS V14.00,2013-08-15 04:01:00,
2013-08-15 00:07:00,70.6,66.6,30.08,NE,37,11.0,14.0,87,0.00,,---,0.00,VWS V14.00,2013-08-15 04:07:00,
2013-08-15 00:12:00,70.7,66.3,30.07,NE,42,7.0,15.0,86,0.00,,---,0.00,VWS V14.00,2013-08-15 04:12:00,
2013-08-15 00:17:00,70.6,66.2,30.07,NNE,30,14.0,15.0,86,0.00,,---,0.00,VWS V14.00,2013-08-15 04:17:00,
2013-08-15 00:22:00,70.6,66.6,30.07,NE,40,9.0,15.0,87,0.00,,---,0.00,VWS V14.00,2013-08-15 04:22:00,
2013-08-15 00:27:00,70.6,66.2,30.07,NE,43,8.0,15.0,86,0.00,,---,0.00,VWS V14.00,2013-08-15 04:27:00,
2013-08-15 00:30:00,70.6,66.6,30.07,NE,45,10.0,15.0,87,0.00,,---,0.00,VWS V14.01,2013-08-15 04:30:00,
2013-08-15 00:32:00,70.7,66.7,30.07,NE,34,10.0,14.0,87,0.00,,---,0.00,VWS V14.00,2013-08-15 04:32:00,
2013-08-15 00:37:00,70.7,66.7,30.07,NE,35,9.0,14.0,87,0.00,,---,0.00,VWS V14.00,2013-08-15 04:37:00,
2013-08-15 00:42:00,70.8,66.4,30.07,NE,40,12.0,15.0,86,0.00,,---,0.00,VWS V14.00,2013-08-15 04:42:00,
2013-08-15 00:47:00,70.8,66.7,30.07,NE,34,8.0,17.0,87,0.00,,---,0.00,VWS V14.00,2013-08-15 04:47:00,
2013-08-15 00:52:00,70.8,66.7,30.08,NE,37,9.0,17.0,87,0.00,,---,0.00,VWS V14.00,2013-08-15 04:52:00,
2013-08-15 00:57:00,70.8,66.7,30.08,NNE,31,12.0,17.0,87,0.00,,---,0.00,VWS V14.00,2013-08-15 04:57:00,
2013-08-15 01:00:00,70.8,66.4,30.08,NE,45,10.0,17.0,86,0.00,,---,0.00,VWS V14.01,2013-08-15 05:00:00,
2013-08-15 01:02:00,70.7,66.0,30.08,NE,37,10.0,14.0,85,0.00,,---,0.00,VWS V14.00,2013-08-15 05:02:00,
2013-08-15 01:07:00,70.7,66.7,30.07,NE,36,10.0,15.0,87,0.00,,---,0.00,VWS V14.00,2013-08-15 05:07:00,
2013-08-15 01:11:00,70.7,66.7,30.07,NE,43,12.0,17.0,87,0.00,,---,0.00,VWS V14.00,2013-08-15 05:11:00,
2013-08-15 01:16:00,70.6,65.9,30.08,NE,39,11.0,17.0,85,0.00,,---,0.00,VWS V14.00,2013-08-15 05:16:00,
2013-08-15 01:21:00,70.6,65.9,30.08,NE,43,5.0,17.0,85,0.00,,---,0.00,VWS V14.00,2013-08-15 05:21:00,
2013-08-15 01:26:00,70.6,65.9,30.08,NE,42,9.0,17.0,85,0.00,,---,0.00,VWS V14.00,2013-08-15 05:26:00,
2013-08-15 01:30:00,70.6,66.2,30.08,NE,45,10.0,17.0,86,0.00,,---,0.00,VWS V14.01,2013-08-15 05:30:00,
2013-08-15 01:31:00,70.5,65.8,30.08,NE,37,12.0,16.0,85,0.00,,---,0.00,VWS V14.00,2013-08-15 05:31:00,
2013-08-15 01:36:00,70.6,66.2,30.08,NE,44,8.0,16.0,86,0.00,,---,0.00,VWS V14.00,2013-08-15 05:36:00,
2013-08-15 01:41:00,70.6,65.5,30.08,NE,36,9.0,16.0,84,0.00,,---,0.00,VWS V14.00,2013-08-15 05:41:00,
2013-08-15 01:46:00,70.6,66.2,30.07,NNE,26,9.0,16.0,86,0.00,,---,0.00,VWS V14.00,2013-08-15 05:46:00,
2013-08-15 01:51:00,70.5,65.8,30.08,NE,37,7.0,16.0,85,0.00,,---,0.00,VWS V14.00,2013-08-15 05:51:00,
2013-08-15 01:56:00,70.5,65.8,30.08,NE,34,9.0,16.0,85,0.00,,---,0.00,VWS V14.00,2013-08-15 05:56:00,
2013-08-15 02:00:00,70.5,66.1,30.07,NE,45,10.0,16.0,86,0.00,,---,0.00,VWS V14.01,2013-08-15 06:00:00,
2013-08-15 02:01:00,70.5,66.1,30.08,NE,51,6.0,11.0,86,0.00,,---,0.00,VWS V14.00,2013-08-15 06:01:00,
2013-08-15 02:06:00,70.4,66.0,30.08,NE,46,8.0,14.0,86,0.00,,---,0.00,VWS V14.00,2013-08-15 06:06:00,
2013-08-15 02:11:00,70.4,66.0,30.07,NE,43,16.0,16.0,86,0.00,,---,0.00,VWS V14.00,2013-08-15 06:11:00,
2013-08-15 02:16:00,70.4,66.3,30.07,NE,42,9.0,17.0,87,0.00,,---,0.00,VWS V14.00,2013-08-15 06:16:00,
2013-08-15 02:21:00,70.5,66.1,30.07,NNE,33,11.0,17.0,86,0.00,,---,0.00,VWS V14.00,2013-08-15 06:21:00,
2013-08-15 02:26:00,70.5,66.4,30.07,NNE,27,9.0,17.0,87,0.00,,---,0.00,VWS V14.00,2013-08-15 06:26:00,
2013-08-15 02:30:00,70.5,66.1,30.07,NE,45,9.0,17.0,86,0.00,,---,0.00,VWS V14.01,2013-08-15 06:30:00,
2013-08-15 02:31:00,70.5,66.1,30.07,NE,36,9.0,14.0,86,0.00,,---,0.00,VWS V14.00,2013-08-15 06:31:00,
2013-08-15 02:36:00,70.6,66.2,30.07,NE,41,8.0,14.0,86,0.00,,---,0.00,VWS V14.00,2013-08-15 06:36:00,
2013-08-15 02:41:00,70.6,66.9,30.07,NNE,20,8.0,14.0,88,0.00,,---,0.00,VWS V14.00,2013-08-15 06:41:00,
2013-08-15 02:46:00,70.6,66.6,30.07,NNE,25,7.0,14.0,87,0.00,,---,0.00,VWS V14.00,2013-08-15 06:46:00,
2013-08-15 02:51:00,70.7,67.0,30.07,NE,36,7.0,14.0,88,0.00,,---,0.00,VWS V14.00,2013-08-15 06:51:00,
2013-08-15 02:56:00,70.6,66.6,30.07,NNE,21,5.0,14.0,87,0.00,,---,0.00,VWS V14.00,2013-08-15 06:56:00,
2013-08-15 03:00:00,70.6,66.9,30.07,NE,45,9.0,14.0,88,0.00,,---,0.00,VWS V14.01,2013-08-15 07:00:00,
2013-08-15 03:01:00,70.6,66.6,30.07,NE,42,8.0,11.0,87,0.00,,---,0.00,VWS V14.00,2013-08-15 07:01:00,
2013-08-15 03:06:00,70.5,66.4,30.07,NE,37,9.0,12.0,87,0.00,,---,0.00,VWS V14.00,2013-08-15 07:06:00,
2013-08-15 03:11:00,70.5,66.8,30.08,NNE,24,5.0,12.0,88,0.00,,---,0.00,VWS V14.00,2013-08-15 07:11:00,
2013-08-15 03:16:00,70.5,66.8,30.08,NNE,26,7.0,12.0,88,0.00,,---,0.00,VWS V14.00,2013-08-15 07:16:00,
2013-08-15 03:21:00,70.4,66.7,30.08,North,6,6.0,12.0,88,0.00,,---,0.00,VWS V14.00,2013-08-15 07:21:00,
2013-08-15 03:26:00,70.4,67.0,30.08,NNE,17,8.0,13.0,89,0.00,,---,0.00,VWS V14.00,2013-08-15 07:26:00,
2013-08-15 03:30:00,70.5,67.1,30.08,NNE,22,8.0,14.0,89,0.00,,---,0.00,VWS V14.01,2013-08-15 07:30:00,
2013-08-15 03:31:00,70.3,66.6,30.08,NNE,20,10.0,14.0,88,0.00,,---,0.00,VWS V14.00,2013-08-15 07:31:00,
2013-08-15 03:36:00,70.2,67.1,30.08,NNE,31,7.0,14.0,90,0.00,,---,0.00,VWS V14.00,2013-08-15 07:36:00,
2013-08-15 03:41:00,69.9,67.2,30.08,NNE,15,11.0,15.0,91,0.00,,---,0.00,VWS V14.00,2013-08-15 07:41:00,
2013-08-15 03:46:00,69.7,67.0,30.08,NNE,19,13.0,17.0,91,0.00,,---,0.00,VWS V14.00,2013-08-15 07:46:00,
2013-08-15 03:51:00,69.6,67.2,30.08,NNE,24,9.0,17.0,92,0.00,,---,0.00,VWS V14.00,2013-08-15 07:51:00,
2013-08-15 03:56:00,69.5,67.4,30.07,NNE,27,11.0,17.0,93,0.00,,---,0.00,VWS V14.00,2013-08-15 07:56:00,
2013-08-15 04:00:00,69.8,67.7,30.07,NNE,22,11.0,17.0,93,0.00,,---,0.00,VWS V14.01,2013-08-15 08:00:00,
2013-08-15 04:01:00,69.4,67.6,30.07,NNE,33,9.0,15.0,94,0.00,,---,0.00,VWS V14.00,2013-08-15 08:01:00,
2013-08-15 04:06:00,69.2,67.4,30.08,NE,35,8.0,15.0,94,0.00,,---,0.00,VWS V14.00,2013-08-15 08:06:00,
2013-08-15 04:11:00,69.1,67.3,30.08,NNE,20,11.0,15.0,94,0.00,,---,0.00,VWS V14.00,2013-08-15 08:11:00,
2013-08-15 04:16:00,69.1,67.6,30.08,NNE,27,11.0,17.0,95,0.00,,---,0.00,VWS V14.00,2013-08-15 08:16:00,
2013-08-15 04:21:00,69.0,67.8,30.09,NNE,31,9.0,17.0,96,0.00,,---,0.00,VWS V14.00,2013-08-15 08:21:00,
2013-08-15 04:26:00,68.9,68.0,30.09,North,8,8.0,17.0,97,0.00,,---,0.00,VWS V14.00,2013-08-15 08:26:00,
2013-08-15 04:30:00,69.1,68.2,30.09,NNE,22,11.0,17.0,97,0.00,,---,0.00,VWS V14.01,2013-08-15 08:30:00,
2013-08-15 04:31:00,68.7,67.8,30.08,NNE,23,12.0,16.0,97,0.00,,---,0.00,VWS V14.00,2013-08-15 08:31:00,
2013-08-15 04:36:00,68.5,68.2,30.08,NE,35,10.0,17.0,99,0.01,,---,0.02,VWS V14.00,2013-08-15 08:36:00,
2013-08-15 04:41:00,68.3,68.3,30.08,NE,41,11.0,17.0,100,0.04,,---,0.04,VWS V14.00,2013-08-15 08:41:00,
2013-08-15 04:46:00,68.0,68.0,30.08,NE,37,9.0,17.0,100,0.05,,---,0.06,VWS V14.00,2013-08-15 08:46:00,
2013-08-15 04:51:00,67.9,67.9,30.08,NE,36,15.0,17.0,100,0.06,,---,0.07,VWS V14.00,2013-08-15 08:51:00,
2013-08-15 04:56:00,67.8,67.8,30.07,NE,37,12.0,18.0,100,0.06,,---,0.08,VWS V14.00,2013-08-15 08:56:00,
2013-08-15 05:00:00,68.2,68.2,30.07,NE,45,12.0,20.0,100,0.00,,---,0.08,VWS V14.01,2013-08-15 09:00:00,
2013-08-15 05:01:00,67.8,67.8,30.07,NE,35,11.0,16.0,100,0.06,,---,0.08,VWS V14.00,2013-08-15 09:01:00,
2013-08-15 05:06:00,67.8,67.8,30.07,NNE,33,10.0,16.0,100,0.06,,---,0.09,VWS V14.00,2013-08-15 09:06:00,
2013-08-15 05:11:00,67.7,67.7,30.07,NNE,33,8.0,17.0,100,0.06,,---,0.09,VWS V14.00,2013-08-15 09:11:00,
2013-08-15 05:16:00,67.8,67.8,30.08,NE,39,12.0,17.0,100,0.05,,---,0.09,VWS V14.00,2013-08-15 09:16:00,
2013-08-15 05:21:00,67.8,67.8,30.08,NE,40,11.0,17.0,100,0.05,,---,0.09,VWS V14.00,2013-08-15 09:21:00,
2013-08-15 05:26:00,67.9,67.9,30.08,NE,40,15.0,17.0,100,0.05,,---,0.09,VWS V14.00,2013-08-15 09:26:00,
2013-08-15 05:30:00,67.8,67.8,30.08,NE,45,10.0,17.0,100,0.00,,---,0.09,VWS V14.01,2013-08-15 09:30:00,
2013-08-15 05:31:00,67.9,67.9,30.08,NE,36,10.0,14.0,100,0.04,,---,0.09,VWS V14.00,2013-08-15 09:31:00,
2013-08-15 05:36:00,67.9,67.9,30.08,NE,39,10.0,14.0,100,0.04,,---,0.09,VWS V14.00,2013-08-15 09:36:00,
2013-08-15 05:41:00,67.9,67.9,30.08,NE,41,9.0,14.0,100,0.04,,---,0.09,VWS V14.00,2013-08-15 09:41:00,
2013-08-15 05:46:00,67.9,67.9,30.08,NNE,26,12.0,14.0,100,0.03,,---,0.09,VWS V14.00,2013-08-15 09:46:00,
2013-08-15 05:51:00,68.0,68.0,30.09,NNE,32,12.0,14.0,100,0.03,,---,0.09,VWS V14.00,2013-08-15 09:51:00,
2013-08-15 05:56:00,68.0,68.0,30.10,NNE,16,3.0,14.0,100,0.03,,---,0.09,VWS V14.00,2013-08-15 09:56:00,
2013-08-15 06:00:00,67.9,67.9,30.10,NE,45,8.0,15.0,100,0.00,,---,0.09,VWS V14.01,2013-08-15 10:00:00,
2013-08-15 06:01:00,68.0,68.0,30.10,NNE,33,7.0,9.0,100,0.03,,---,0.09,VWS V14.00,2013-08-15 10:01:00,
2013-08-15 06:06:00,68.0,68.0,30.10,NNE,32,8.0,10.0,100,0.02,,---,0.09,VWS V14.00,2013-08-15 10:06:00,
2013-08-15 06:11:00,68.0,68.0,30.10,NNE,27,10.0,12.0,100,0.02,,---,0.09,VWS V14.00,2013-08-15 10:11:00,
2013-08-15 06:16:00,68.0,68.0,30.10,NE,38,9.0,12.0,100,0.02,,---,0.09,VWS V14.00,2013-08-15 10:16:00,
2013-08-15 06:21:00,68.1,68.1,30.10,NE,40,6.0,13.0,100,0.02,,---,0.09,VWS V14.00,2013-08-15 10:21:00,
2013-08-15 06:26:00,68.1,68.1,30.11,NE,54,5.0,13.0,100,0.02,,---,0.09,VWS V14.00,2013-08-15 10:26:00,
2013-08-15 06:30:00,68.0,68.0,30.11,NE,45,8.0,14.0,100,0.00,,---,0.09,VWS V14.01,2013-08-15 10:30:00,
2013-08-15 06:31:00,68.0,68.0,30.10,NE,49,11.0,11.0,100,0.02,,---,0.09,VWS V14.00,2013-08-15 10:31:00,
2013-08-15 06:36:00,68.0,68.0,30.11,NE,52,7.0,11.0,100,0.01,,---,0.09,VWS V14.00,2013-08-15 10:36:00,
2013-08-15 06:41:00,68.0,68.0,30.11,NE,51,5.0,11.0,100,0.02,,---,0.10,VWS V14.00,2013-08-15 10:41:00,
2013-08-15 06:46:00,68.0,68.0,30.13,ENE,66,3.0,11.0,100,0.02,,---,0.10,VWS V14.00,2013-08-15 10:46:00,
2013-08-15 06:51:00,68.0,68.0,30.13,NE,34,6.0,11.0,100,0.02,,---,0.10,VWS V14.00,2013-08-15 10:51:00,
2013-08-15 06:56:00,68.0,68.0,30.12,ENE,72,6.0,11.0,100,0.02,,---,0.10,VWS V14.00,2013-08-15 10:56:00,
2013-08-15 07:00:00,68.0,68.0,30.11,NE,45,5.0,11.0,100,0.00,,---,0.10,VWS V14.01,2013-08-15 11:00:00,
2013-08-15 07:01:00,68.0,68.0,30.11,ENE,67,6.0,12.0,100,0.02,,---,0.10,VWS V14.00,2013-08-15 11:01:00,
2013-08-15 07:06:00,68.0,68.0,30.12,East,81,5.0,12.0,100,0.02,,---,0.10,VWS V14.00,2013-08-15 11:06:00,
2013-08-15 07:11:00,68.1,68.1,30.13,East,79,2.0,12.0,100,0.01,,---,0.10,VWS V14.00,2013-08-15 11:11:00,
2013-08-15 07:16:00,68.0,68.0,30.13,ENE,61,10.0,12.0,100,0.01,,---,0.10,VWS V14.00,2013-08-15 11:16:00,
2013-08-15 07:21:00,68.0,68.0,30.13,ENE,64,5.0,12.0,100,0.01,,---,0.10,VWS V14.00,2013-08-15 11:21:00,
2013-08-15 07:26:00,68.0,68.0,30.13,NE,53,5.0,12.0,100,0.01,,---,0.10,VWS V14.00,2013-08-15 11:26:00,
2013-08-15 07:30:00,68.0,68.0,30.12,ENE,68,6.0,12.0,100,0.00,,---,0.10,VWS V14.01,2013-08-15 11:30:00,
2013-08-15 07:31:00,67.9,67.9,30.12,NE,46,9.0,9.0,100,0.01,,---,0.10,VWS V14.00,2013-08-15 11:31:00,
2013-08-15 07:36:00,68.0,68.0,30.12,ENE,74,6.0,10.0,100,0.02,,---,0.11,VWS V14.00,2013-08-15 11:36:00,
2013-08-15 07:41:00,67.9,67.9,30.12,NE,43,8.0,11.0,100,0.02,,---,0.11,VWS V14.00,2013-08-15 11:41:00,
2013-08-15 07:46:00,67.9,67.9,30.13,ENE,71,7.0,11.0,100,0.02,,---,0.11,VWS V14.00,2013-08-15 11:46:00,
2013-08-15 07:51:00,67.9,67.9,30.12,ENE,75,4.0,11.0,100,0.01,,---,0.11,VWS V14.00,2013-08-15 11:51:00,
2013-08-15 07:56:00,67.8,67.8,30.12,NE,51,3.0,11.0,100,0.02,,---,0.12,VWS V14.00,2013-08-15 11:56:00,
2013-08-15 08:00:00,67.9,67.9,30.12,ENE,68,6.0,13.0,100,0.00,,---,0.12,VWS V14.01,2013-08-15 12:00:00,
2013-08-15 08:01:00,67.8,67.8,30.12,ENE,68,7.0,13.0,100,0.02,,---,0.12,VWS V14.00,2013-08-15 12:01:00,
2013-08-15 08:06:00,67.7,67.7,30.12,ENE,60,8.0,13.0,100,0.02,,---,0.12,VWS V14.00,2013-08-15 12:06:00,
2013-08-15 08:11:00,67.7,67.7,30.12,ENE,67,4.0,13.0,100,0.02,,---,0.12,VWS V14.00,2013-08-15 12:11:00,
2013-08-15 08:16:00,67.7,67.7,30.12,ENE,57,4.0,13.0,100,0.02,,---,0.12,VWS V14.00,2013-08-15 12:16:00,
2013-08-15 08:21:00,67.7,67.7,30.12,NE,44,6.0,13.0,100,0.02,,---,0.12,VWS V14.00,2013-08-15 12:21:00,
2013-08-15 08:26:00,67.7,67.7,30.12,NE,43,9.0,13.0,100,0.02,,---,0.13,VWS V14.00,2013-08-15 12:26:00,
2013-08-15 08:30:00,67.7,67.7,30.12,NE,45,6.0,13.0,100,0.00,,---,0.13,VWS V14.01,2013-08-15 12:30:00,
2013-08-15 08:31:00,67.7,67.7,30.12,NE,38,9.0,10.0,100,0.02,,---,0.13,VWS V14.00,2013-08-15 12:31:00,
2013-08-15 08:36:00,67.7,67.7,30.12,NE,37,7.0,11.0,100,0.02,,---,0.13,VWS V14.00,2013-08-15 12:36:00,
2013-08-15 08:41:00,67.7,67.7,30.12,NE,39,11.0,13.0,100,0.02,,---,0.13,VWS V14.00,2013-08-15 12:41:00,
2013-08-15 08:46:00,67.7,67.7,30.12,NE,36,10.0,13.0,100,0.02,,---,0.13,VWS V14.00,2013-08-15 12:46:00,
2013-08-15 08:51:00,67.8,67.8,30.12,NE,35,8.0,13.0,100,0.03,,---,0.14,VWS V14.00,2013-08-15 12:51:00,
2013-08-15 08:56:00,67.7,67.7,30.13,NNE,26,5.0,13.0,100,0.02,,---,0.14,VWS V14.00,2013-08-15 12:56:00,
2013-08-15 09:00:00,67.7,67.7,30.13,NE,45,8.0,13.0,100,0.00,,---,0.14,VWS V14.01,2013-08-15 13:00:00,
2013-08-15 09:01:00,67.8,67.8,30.13,NNE,27,6.0,9.0,100,0.02,,---,0.14,VWS V14.00,2013-08-15 13:01:00,
2013-08-15 09:06:00,67.8,67.8,30.13,NNE,22,10.0,11.0,100,0.02,,---,0.14,VWS V14.00,2013-08-15 13:06:00,
2013-08-15 09:11:00,67.9,67.9,30.13,NNE,21,8.0,11.0,100,0.02,,---,0.14,VWS V14.00,2013-08-15 13:11:00,
2013-08-15 09:16:00,67.9,67.9,30.13,NNE,25,7.0,11.0,100,0.02,,---,0.14,VWS V14.00,2013-08-15 13:16:00,
2013-08-15 09:21:00,68.0,68.0,30.13,NE,47,6.0,11.0,100,0.02,,---,0.14,VWS V14.00,2013-08-15 13:21:00,
2013-08-15 09:26:00,68.0,68.0,30.13,NE,37,8.0,11.0,100,0.01,,---,0.14,VWS V14.00,2013-08-15 13:26:00,
2013-08-15 09:30:00,67.9,67.9,30.13,NE,45,7.0,13.0,100,0.00,,---,0.14,VWS V14.01,2013-08-15 13:30:00,
2013-08-15 09:31:00,68.1,68.1,30.13,NE,38,7.0,12.0,100,0.01,,---,0.14,VWS V14.00,2013-08-15 13:31:00,
2013-08-15 09:36:00,68.1,68.1,30.13,NE,44,6.0,13.0,100,0.01,,---,0.14,VWS V14.00,2013-08-15 13:36:00,
2013-08-15 09:41:00,68.2,68.2,30.13,NE,41,5.0,13.0,100,0.01,,---,0.14,VWS V14.00,2013-08-15 13:41:00,
2013-08-15 09:46:00,68.2,68.2,30.13,NE,44,12.0,13.0,100,0.01,,---,0.14,VWS V14.00,2013-08-15 13:46:00,
2013-08-15 09:51:00,68.3,68.3,30.13,NE,38,9.0,13.0,100,0.01,,---,0.14,VWS V14.00,2013-08-15 13:51:00,
2013-08-15 09:56:00,68.3,68.3,30.13,NE,51,8.0,13.0,100,0.01,,---,0.14,VWS V14.00,2013-08-15 13:56:00,
2013-08-15 10:00:00,68.2,68.2,30.13,NE,45,8.0,13.0,100,0.00,,---,0.14,VWS V14.01,2013-08-15 14:00:00,
2013-08-15 10:01:00,68.3,68.3,30.13,NE,51,7.0,11.0,100,0.01,,---,0.14,VWS V14.00,2013-08-15 14:01:00,
2013-08-15 10:06:00,68.3,68.3,30.13,NE,46,2.0,13.0,100,0.01,,---,0.14,VWS V14.00,2013-08-15 14:06:00,
2013-08-15 10:11:00,68.3,68.3,30.13,NE,49,4.0,13.0,100,0.01,,---,0.14,VWS V14.00,2013-08-15 14:11:00,
2013-08-15 10:16:00,68.3,68.3,30.13,NNE,33,7.0,13.0,100,0.01,,---,0.14,VWS V14.00,2013-08-15 14:16:00,
2013-08-15 10:21:00,68.3,68.3,30.13,NE,40,7.0,13.0,100,0.01,,---,0.14,VWS V14.00,2013-08-15 14:21:00,
2013-08-15 10:26:00,68.4,68.4,30.14,NE,38,8.0,13.0,100,0.01,,---,0.14,VWS V14.00,2013-08-15 14:26:00,
2013-08-15 10:30:00,68.3,68.3,30.13,NE,45,7.0,14.0,100,0.00,,---,0.15,VWS V14.01,2013-08-15 14:30:00,
2013-08-15 10:31:00,68.5,68.5,30.13,NE,40,10.0,10.0,100,0.01,,---,0.15,VWS V14.00,2013-08-15 14:31:00,
2013-08-15 10:36:00,68.5,68.5,30.14,NNE,17,6.0,10.0,100,0.01,,---,0.15,VWS V14.00,2013-08-15 14:36:00,
2013-08-15 10:41:00,68.6,68.6,30.14,NNE,14,7.0,11.0,100,0.01,,---,0.15,VWS V14.00,2013-08-15 14:41:00,
2013-08-15 10:46:00,68.6,68.6,30.14,North,6,7.0,11.0,100,0.01,,---,0.15,VWS V14.00,2013-08-15 14:46:00,
2013-08-15 10:51:00,68.7,68.7,30.15,North,8,7.0,12.0,100,0.01,,---,0.15,VWS V14.00,2013-08-15 14:51:00,
2013-08-15 10:57:00,68.8,68.8,30.15,NNE,12,8.0,12.0,100,0.02,,---,0.16,VWS V14.00,2013-08-15 14:57:00,
2013-08-15 11:00:00,68.6,68.6,30.15,North,0,6.0,12.0,100,0.00,,---,0.18,VWS V14.01,2013-08-15 15:00:00,
2013-08-15 11:02:00,68.7,68.7,30.15,North,352,5.0,9.0,100,0.04,,---,0.18,VWS V14.00,2013-08-15 15:02:00,
2013-08-15 11:07:00,68.7,68.7,30.15,North,4,7.0,9.0,100,0.05,,---,0.20,VWS V14.00,2013-08-15 15:07:00,
2013-08-15 11:12:00,68.7,68.7,30.14,North,9,9.0,11.0,100,0.06,,---,0.21,VWS V14.00,2013-08-15 15:12:00,
2013-08-15 11:17:00,68.7,68.7,30.14,NNE,30,9.0,11.0,100,0.06,,---,0.22,VWS V14.00,2013-08-15 15:17:00,
2013-08-15 11:22:00,68.7,68.7,30.14,NNE,16,8.0,11.0,100,0.07,,---,0.23,VWS V14.00,2013-08-15 15:22:00,
2013-08-15 11:27:00,68.7,68.7,30.13,NNE,29,11.0,11.0,100,0.07,,---,0.24,VWS V14.00,2013-08-15 15:27:00,
2013-08-15 11:30:00,68.7,68.7,30.13,NNE,22,7.0,12.0,100,0.00,,---,0.24,VWS V14.01,2013-08-15 15:30:00,
2013-08-15 11:32:00,68.7,68.7,30.13,NE,37,9.0,12.0,100,0.07,,---,0.24,VWS V14.00,2013-08-15 15:32:00,
2013-08-15 11:37:00,68.7,68.7,30.13,NE,38,7.0,12.0,100,0.07,,---,0.25,VWS V14.00,2013-08-15 15:37:00,
2013-08-15 11:42:00,68.8,68.8,30.13,NNE,31,7.0,12.0,100,0.07,,---,0.26,VWS V14.00,2013-08-15 15:42:00,
2013-08-15 11:47:00,68.7,68.7,30.13,NE,40,8.0,12.0,100,0.07,,---,0.26,VWS V14.00,2013-08-15 15:47:00,
2013-08-15 11:52:00,68.9,68.9,30.13,NNE,27,10.0,12.0,100,0.07,,---,0.27,VWS V14.00,2013-08-15 15:52:00,
2013-08-15 11:57:00,68.9,68.9,30.12,NE,39,10.0,13.0,100,0.07,,---,0.27,VWS V14.00,2013-08-15 15:57:00,
2013-08-15 12:00:00,68.8,68.8,30.12,NE,45,7.0,13.0,100,0.00,,---,0.27,VWS V14.01,2013-08-15 16:00:00,
2013-08-15 12:02:00,68.9,68.9,30.12,NE,42,12.0,15.0,100,0.06,,---,0.27,VWS V14.00,2013-08-15 16:02:00,
2013-08-15 12:07:00,68.9,68.9,30.12,NE,34,12.0,15.0,100,0.06,,---,0.27,VWS V14.00,2013-08-15 16:07:00,
2013-08-15 12:12:00,69.0,69.0,30.12,NE,35,7.0,15.0,100,0.05,,---,0.27,VWS V14.00,2013-08-15 16:12:00,
2013-08-15 12:18:00,69.0,69.0,30.12,NE,35,10.0,15.0,100,0.05,,---,0.27,VWS V14.00,2013-08-15 16:18:00,
2013-08-15 12:23:00,69.0,69.0,30.12,NNE,30,8.0,15.0,100,0.04,,---,0.27,VWS V14.00,2013-08-15 16:23:00,
2013-08-15 12:28:00,68.8,68.8,30.12,NE,35,10.0,15.0,100,0.04,,---,0.27,VWS V14.00,2013-08-15 16:28:00,
2013-08-15 12:30:00,68.9,68.9,30.11,NE,45,10.0,17.0,100,0.00,,---,0.27,VWS V14.01,2013-08-15 16:30:00,
2013-08-15 12:33:00,68.7,68.7,30.12,NE,38,10.0,16.0,100,0.04,,---,0.27,VWS V14.00,2013-08-15 16:33:00,
2013-08-15 12:38:00,68.6,68.6,30.12,NE,35,10.0,16.0,100,0.03,,---,0.27,VWS V14.00,2013-08-15 16:38:00,
2013-08-15 12:43:00,68.5,68.5,30.12,NE,38,11.0,16.0,100,0.03,,---,0.27,VWS V14.00,2013-08-15 16:43:00,
2013-08-15 12:48:00,68.5,68.5,30.12,NE,41,8.0,16.0,100,0.03,,---,0.27,VWS V14.00,2013-08-15 16:48:00,
2013-08-15 12:53:00,68.5,68.5,30.12,NE,46,6.0,16.0,100,0.03,,---,0.27,VWS V14.00,2013-08-15 16:53:00,
2013-08-15 12:58:00,68.4,68.4,30.12,NE,39,8.0,16.0,100,0.02,,---,0.27,VWS V14.00,2013-08-15 16:58:00,
2013-08-15 13:00:00,68.5,68.5,30.12,NE,45,9.0,16.0,100,0.00,,---,0.27,VWS V14.01,2013-08-15 17:00:00,
2013-08-15 13:03:00,68.4,68.4,30.12,NE,39,9.0,13.0,100,0.03,,---,0.28,VWS V14.00,2013-08-15 17:03:00,
2013-08-15 13:08:00,68.4,68.4,30.12,NE,43,4.0,13.0,100,0.03,,---,0.28,VWS V14.00,2013-08-15 17:08:00,
2013-08-15 13:13:00,68.5,68.5,30.12,NE,41,9.0,13.0,100,0.04,,---,0.29,VWS V14.00,2013-08-15 17:13:00,
2013-08-15 13:18:00,68.5,68.5,30.12,NNE,25,8.0,13.0,100,0.04,,---,0.31,VWS V14.00,2013-08-15 17:18:00,
2013-08-15 13:23:00,68.5,68.5,30.11,NE,36,11.0,14.0,100,0.06,,---,0.32,VWS V14.00,2013-08-15 17:23:00,
2013-08-15 13:28:00,68.5,68.5,30.12,NNE,32,11.0,14.0,100,0.06,,---,0.34,VWS V14.00,2013-08-15 17:28:00,
2013-08-15 13:30:00,68.5,68.5,30.12,NE,45,8.0,14.0,100,0.00,,---,0.34,VWS V14.01,2013-08-15 17:30:00,
2013-08-15 13:33:00,68.4,68.4,30.12,NE,35,6.0,13.0,100,0.08,,---,0.35,VWS V14.00,2013-08-15 17:33:00,
2013-08-15 13:38:00,68.5,68.5,30.12,NE,40,7.0,13.0,100,0.08,,---,0.36,VWS V14.00,2013-08-15 17:38:00,
2013-08-15 13:43:00,68.5,68.5,30.12,NNE,14,5.0,13.0,100,0.08,,---,0.37,VWS V14.00,2013-08-15 17:43:00,
2013-08-15 13:49:00,68.5,68.5,30.12,NNE,26,3.0,13.0,100,0.09,,---,0.38,VWS V14.00,2013-08-15 17:49:00,
2013-08-15 13:54:00,68.6,68.6,30.12,North,1,5.0,13.0,100,0.10,,---,0.40,VWS V14.00,2013-08-15 17:54:00,
2013-08-15 13:59:00,68.7,68.7,30.12,North,0,4.0,13.0,100,0.10,,---,0.42,VWS V14.00,2013-08-15 17:59:00,
2013-08-15 14:00:00,68.5,68.5,30.12,NNE,22,6.0,13.0,100,0.00,,---,0.42,VWS V14.01,2013-08-15 18:00:00,
2013-08-15 14:04:00,68.7,68.7,30.13,North,1,4.0,8.0,100,0.11,,---,0.43,VWS V14.00,2013-08-15 18:04:00,
2013-08-15 14:09:00,68.5,68.5,30.12,NNE,33,8.0,11.0,100,0.11,,---,0.44,VWS V14.00,2013-08-15 18:09:00,
2013-08-15 14:14:00,68.5,68.5,30.12,North,0,3.0,11.0,100,0.11,,---,0.46,VWS V14.00,2013-08-15 18:14:00,
2013-08-15 14:19:00,68.4,68.4,30.12,NNE,17,3.0,11.0,100,0.12,,---,0.47,VWS V14.00,2013-08-15 18:19:00,
2013-08-15 14:24:00,68.4,68.4,30.12,NNE,25,7.0,11.0,100,0.12,,---,0.48,VWS V14.00,2013-08-15 18:24:00,
2013-08-15 14:29:00,68.4,68.4,30.12,NNE,29,7.0,11.0,100,0.12,,---,0.49,VWS V14.00,2013-08-15 18:29:00,
2013-08-15 14:30:00,68.5,68.5,30.12,North,0,5.0,11.0,100,0.00,,---,0.50,VWS V14.01,2013-08-15 18:30:00,
2013-08-15 14:34:00,68.4,68.4,30.12,NNE,19,8.0,12.0,100,0.12,,---,0.50,VWS V14.00,2013-08-15 18:34:00,
2013-08-15 14:39:00,68.4,68.4,30.12,NNE,21,9.0,13.0,100,0.12,,---,0.51,VWS V14.00,2013-08-15 18:39:00,
2013-08-15 14:45:00,68.1,68.1,30.11,NNE,32,7.0,13.0,100,0.11,,---,0.51,VWS V14.00,2013-08-15 18:45:00,
2013-08-15 14:50:00,68.0,68.0,30.11,NNE,20,9.0,14.0,100,0.11,,---,0.52,VWS V14.00,2013-08-15 18:50:00,
2013-08-15 14:55:00,67.9,67.9,30.11,NNE,25,8.0,14.0,100,0.10,,---,0.52,VWS V14.00,2013-08-15 18:55:00,
2013-08-15 15:00:00,67.8,67.8,30.11,NNE,26,7.0,10.0,100,0.09,,---,0.52,VWS V14.00,2013-08-15 19:00:00,
2013-08-15 15:05:00,67.8,67.8,30.11,NNE,23,10.0,12.0,100,0.09,,---,0.52,VWS V14.00,2013-08-15 19:05:00,
2013-08-15 15:10:00,67.8,67.8,30.11,NNE,12,6.0,12.0,100,0.08,,---,0.52,VWS V14.00,2013-08-15 19:10:00,
2013-08-15 15:15:00,67.8,67.8,30.10,North,6,8.0,12.0,100,0.08,,---,0.53,VWS V14.00,2013-08-15 19:15:00,
2013-08-15 15:20:00,67.7,67.7,30.10,NNE,28,7.0,12.0,100,0.08,,---,0.53,VWS V14.00,2013-08-15 19:20:00,
2013-08-15 15:26:00,67.8,67.8,30.10,NNE,30,9.0,12.0,100,0.07,,---,0.53,VWS V14.00,2013-08-15 19:26:00,
2013-08-15 15:30:00,67.8,67.8,30.09,NNE,22,8.0,13.0,100,0.00,,---,0.54,VWS V14.01,2013-08-15 19:30:00,
2013-08-15 15:31:00,67.9,67.9,30.10,NE,40,9.0,13.0,100,0.07,,---,0.54,VWS V14.00,2013-08-15 19:31:00,
2013-08-15 15:36:00,68.0,68.0,30.09,NNE,26,11.0,13.0,100,0.08,,---,0.55,VWS V14.00,2013-08-15 19:36:00,
2013-08-15 15:41:00,68.1,68.1,30.09,NNE,24,12.0,14.0,100,0.07,,---,0.55,VWS V14.00,2013-08-15 19:41:00,
2013-08-15 15:46:00,68.3,68.3,30.09,NE,38,8.0,14.0,100,0.07,,---,0.56,VWS V14.00,2013-08-15 19:46:00,
2013-08-15 15:51:00,68.4,68.4,30.09,NNE,29,10.0,14.0,100,0.07,,---,0.56,VWS V14.00,2013-08-15 19:51:00,
2013-08-15 15:56:00,68.5,68.5,30.09,NE,34,11.0,15.0,100,0.06,,---,0.56,VWS V14.00,2013-08-15 19:56:00,
2013-08-15 16:00:00,68.3,68.3,30.09,NNE,22,9.0,16.0,100,0.00,,---,0.56,VWS V14.01,2013-08-15 20:00:00,
2013-08-15 16:01:00,68.7,68.7,30.09,NE,41,14.0,14.0,100,0.06,,---,0.56,VWS V14.00,2013-08-15 20:01:00,
2013-08-15 16:06:00,68.8,68.8,30.09,NE,45,12.0,15.0,100,0.05,,---,0.56,VWS V14.00,2013-08-15 20:06:00,
2013-08-15 16:11:00,69.0,69.0,30.08,NE,42,13.0,15.0,100,0.05,,---,0.56,VWS V14.00,2013-08-15 20:11:00,
2013-08-15 16:16:00,69.2,69.2,30.08,NNE,14,10.0,16.0,100,0.04,,---,0.56,VWS V14.00,2013-08-15 20:16:00,
2013-08-15 16:21:00,69.3,69.3,30.08,NNE,31,11.0,16.0,100,0.04,,---,0.56,VWS V14.00,2013-08-15 20:21:00,
2013-08-15 16:26:00,69.3,69.3,30.08,NNE,19,10.0,16.0,100,0.04,,---,0.56,VWS V14.00,2013-08-15 20:26:00,
2013-08-15 16:30:00,69.1,69.1,30.09,NNE,22,10.0,16.0,100,0.00,,---,0.56,VWS V14.01,2013-08-15 20:30:00,
2013-08-15 16:31:00,69.3,69.3,30.09,NE,35,10.0,15.0,100,0.03,,---,0.56,VWS V14.00,2013-08-15 20:31:00,
2013-08-15 16:36:00,69.1,69.1,30.09,NE,43,6.0,15.0,100,0.03,,---,0.56,VWS V14.00,2013-08-15 20:36:00,
2013-08-15 16:41:00,69.0,69.0,30.09,NNE,33,11.0,20.0,100,0.03,,---,0.56,VWS V14.00,2013-08-15 20:41:00,
2013-08-15 16:46:00,68.9,68.9,30.09,NNE,31,13.0,20.0,100,0.03,,---,0.56,VWS V14.00,2013-08-15 20:46:00,
2013-08-15 16:51:00,68.8,68.8,30.09,NE,43,11.0,20.0,100,0.03,,---,0.56,VWS V14.00,2013-08-15 20:51:00,
2013-08-15 16:57:00,68.8,68.8,30.09,NE,39,13.0,20.0,100,0.02,,---,0.56,VWS V14.00,2013-08-15 20:57:00,
2013-08-15 17:00:00,69.0,69.0,30.09,NE,45,11.0,20.0,100,0.00,,---,0.56,VWS V14.01,2013-08-15 21:00:00,
2013-08-15 17:02:00,68.8,68.8,30.09,NNE,26,7.0,13.0,100,0.02,,---,0.56,VWS V14.00,2013-08-15 21:02:00,
2013-08-15 17:07:00,68.8,68.8,30.10,NNE,30,11.0,15.0,100,0.02,,---,0.56,VWS V14.00,2013-08-15 21:07:00,
2013-08-15 17:12:00,68.8,68.8,30.10,NNE,27,9.0,15.0,100,0.02,,---,0.56,VWS V14.00,2013-08-15 21:12:00,
2013-08-15 17:17:00,68.8,68.8,30.10,NE,37,9.0,15.0,100,0.02,,---,0.57,VWS V14.00,2013-08-15 21:17:00,
2013-08-15 17:22:00,68.7,68.7,30.09,NE,35,12.0,15.0,100,0.03,,---,0.58,VWS V14.00,2013-08-15 21:22:00,
2013-08-15 17:27:00,68.6,68.6,30.09,NNE,32,14.0,17.0,100,0.07,,---,0.63,VWS V14.00,2013-08-15 21:27:00,
2013-08-15 17:30:00,68.7,68.7,30.09,NNE,22,10.0,17.0,100,0.00,,---,0.65,VWS V14.01,2013-08-15 21:30:00,
2013-08-15 17:32:00,68.5,68.5,30.09,NE,45,7.0,15.0,100,0.10,,---,0.66,VWS V14.00,2013-08-15 21:32:00,
2013-08-15 17:37:00,68.4,68.4,30.09,NE,34,8.0,15.0,100,0.11,,---,0.68,VWS V14.00,2013-08-15 21:37:00,
2013-08-15 17:42:00,68.3,68.3,30.10,NE,38,10.0,16.0,100,0.11,,---,0.69,VWS V14.00,2013-08-15 21:42:00,
2013-08-15 17:47:00,68.3,68.3,30.09,NNE,33,13.0,16.0,100,0.11,,---,0.71,VWS V14.00,2013-08-15 21:47:00,
2013-08-15 17:52:00,68.2,68.2,30.09,NE,37,7.0,16.0,100,0.12,,---,0.72,VWS V14.00,2013-08-15 21:52:00,
2013-08-15 17:57:00,68.1,68.1,30.09,NNE,31,7.0,16.0,100,0.15,,---,0.76,VWS V14.00,2013-08-15 21:57:00,
2013-08-15 18:00:00,68.3,68.3,30.09,NNE,22,10.0,16.0,100,0.00,,---,0.77,VWS V14.01,2013-08-15 22:00:00,
2013-08-15 18:02:00,68.1,68.1,30.09,NNE,21,8.0,11.0,100,0.16,,---,0.78,VWS V14.00,2013-08-15 22:02:00,
2013-08-15 18:07:00,68.0,68.0,30.09,NNE,33,7.0,14.0,100,0.15,,---,0.78,VWS V14.00,2013-08-15 22:07:00,
2013-08-15 18:12:00,68.0,68.0,30.09,NNE,26,10.0,14.0,100,0.14,,---,0.79,VWS V14.00,2013-08-15 22:12:00,
2013-08-15 18:17:00,67.9,67.9,30.09,NNE,30,9.0,14.0,100,0.13,,---,0.79,VWS V14.00,2013-08-15 22:17:00,
2013-08-15 18:22:00,67.8,67.8,30.08,NNE,25,12.0,14.0,100,0.12,,---,0.79,VWS V14.00,2013-08-15 22:22:00,
2013-08-15 18:27:00,67.7,67.7,30.08,NE,34,12.0,17.0,100,0.12,,---,0.80,VWS V14.00,2013-08-15 22:27:00,
2013-08-15 18:30:00,67.9,67.9,30.09,NNE,22,9.0,17.0,100,0.00,,---,0.80,VWS V14.01,2013-08-15 22:30:00,
2013-08-15 18:32:00,67.7,67.7,30.08,NNE,32,11.0,15.0,100,0.11,,---,0.80,VWS V14.00,2013-08-15 22:32:00,
2013-08-15 18:37:00,67.7,67.7,30.09,NE,36,13.0,15.0,100,0.10,,---,0.80,VWS V14.00,2013-08-15 22:37:00,
2013-08-15 18:42:00,67.7,67.7,30.09,NE,40,10.0,15.0,100,0.10,,---,0.80,VWS V14.00,2013-08-15 22:42:00,
2013-08-15 18:47:00,67.6,67.6,30.09,NE,40,9.0,15.0,100,0.09,,---,0.80,VWS V14.00,2013-08-15 22:47:00,
2013-08-15 18:52:00,67.6,67.6,30.09,NNE,30,13.0,17.0,100,0.08,,---,0.80,VWS V14.00,2013-08-15 22:52:00,
2013-08-15 18:57:00,67.7,67.7,30.09,NNE,32,12.0,17.0,100,0.07,,---,0.80,VWS V14.00,2013-08-15 22:57:00,
2013-08-15 19:00:00,67.7,67.7,30.09,NE,45,11.0,17.0,100,0.00,,---,0.80,VWS V14.01,2013-08-15 23:00:00,
2013-08-15 19:02:00,67.6,67.6,30.09,NE,48,8.0,14.0,100,0.07,,---,0.80,VWS V14.00,2013-08-15 23:02:00,
2013-08-15 19:07:00,67.6,67.6,30.09,NE,42,13.0,14.0,100,0.06,,---,0.80,VWS V14.00,2013-08-15 23:07:00,
2013-08-15 19:12:00,67.6,67.6,30.09,NE,45,9.0,14.0,100,0.06,,---,0.81,VWS V14.00,2013-08-15 23:12:00,
2013-08-15 19:17:00,67.7,67.7,30.09,NE,35,12.0,15.0,100,0.06,,---,0.81,VWS V14.00,2013-08-15 23:17:00,
2013-08-15 19:22:00,67.7,67.7,30.09,NE,37,7.0,15.0,100,0.06,,---,0.81,VWS V14.00,2013-08-15 23:22:00,
2013-08-15 19:28:00,67.7,67.7,30.09,NE,40,12.0,16.0,100,0.05,,---,0.81,VWS V14.00,2013-08-15 23:28:00,
2013-08-15 19:30:00,67.6,67.6,30.09,NE,45,10.0,16.0,100,0.00,,---,0.81,VWS V14.01,2013-08-15 23:30:00,
2013-08-15 19:33:00,67.7,67.7,30.10,NE,39,6.0,13.0,100,0.05,,---,0.81,VWS V14.00,2013-08-15 23:33:00,
2013-08-15 19:38:00,67.6,67.6,30.10,NE,39,10.0,15.0,100,0.04,,---,0.81,VWS V14.00,2013-08-15 23:38:00,
2013-08-15 19:43:00,67.5,67.5,30.09,NE,45,8.0,15.0,100,0.04,,---,0.81,VWS V14.00,2013-08-15 23:43:00,
2013-08-15 19:48:00,67.5,67.5,30.09,NE,41,11.0,15.0,100,0.04,,---,0.81,VWS V14.00,2013-08-15 23:48:00,
2013-08-15 19:53:00,67.5,67.5,30.10,NE,39,10.0,15.0,100,0.03,,---,0.81,VWS V14.00,2013-08-15 23:53:00,
2013-08-15 19:58:00,67.5,67.5,30.10,NE,37,12.0,18.0,100,0.03,,---,0.81,VWS V14.00,2013-08-15 23:58:00,
2013-08-15 20:00:00,67.5,67.5,30.09,NE,45,10.0,18.0,100,0.00,,---,0.81,VWS V14.01,2013-08-16 00:00:00,
2013-08-15 20:03:00,67.5,67.5,30.09,NE,36,12.0,15.0,100,0.03,,---,0.81,VWS V14.00,2013-08-16 00:03:00,
2013-08-15 20:08:00,67.4,67.4,30.10,NE,35,13.0,15.0,100,0.03,,---,0.81,VWS V14.00,2013-08-16 00:08:00,
2013-08-15 20:13:00,67.4,67.4,30.10,NE,41,9.0,15.0,100,0.02,,---,0.81,VWS V14.00,2013-08-16 00:13:00,
2013-08-15 20:18:00,67.4,67.4,30.10,NE,48,8.0,15.0,100,0.02,,---,0.81,VWS V14.00,2013-08-16 00:18:00,
2013-08-15 20:23:00,67.4,67.4,30.10,NE,36,8.0,15.0,100,0.02,,---,0.81,VWS V14.00,2013-08-16 00:23:00,
2013-08-15 20:28:00,67.4,67.4,30.10,NE,48,6.0,15.0,100,0.02,,---,0.81,VWS V14.00,2013-08-16 00:28:00,
2013-08-15 20:30:00,67.4,67.4,30.09,NE,45,9.0,16.0,100,0.00,,---,0.81,VWS V14.01,2013-08-16 00:30:00,
2013-08-15 20:33:00,67.3,67.3,30.09,NE,35,10.0,12.0,100,0.02,,---,0.81,VWS V14.00,2013-08-16 00:33:00,
2013-08-15 20:38:00,67.4,67.4,30.10,NNE,29,10.0,13.0,100,0.02,,---,0.81,VWS V14.00,2013-08-16 00:38:00,
2013-08-15 20:43:00,67.5,67.5,30.10,NNE,23,10.0,13.0,100,0.01,,---,0.81,VWS V14.00,2013-08-16 00:43:00,
2013-08-15 20:48:00,67.5,67.5,30.10,NNE,29,7.0,14.0,100,0.01,,---,0.81,VWS V14.00,2013-08-16 00:48:00,
2013-08-15 20:53:00,67.5,67.5,30.10,NE,34,6.0,14.0,100,0.01,,---,0.81,VWS V14.00,2013-08-16 00:53:00,
2013-08-15 20:58:00,67.5,67.5,30.10,NE,44,11.0,14.0,100,0.01,,---,0.81,VWS V14.00,2013-08-16 00:58:00,
2013-08-15 21:00:00,67.5,67.5,30.11,NE,45,9.0,14.0,100,0.00,,---,0.81,VWS V14.01,2013-08-16 01:00:00,
2013-08-15 21:03:00,67.5,67.5,30.11,NE,38,7.0,11.0,100,0.01,,---,0.81,VWS V14.00,2013-08-16 01:03:00,
2013-08-15 21:08:00,67.6,67.6,30.11,NNE,29,9.0,12.0,100,0.01,,---,0.81,VWS V14.00,2013-08-16 01:08:00,
2013-08-15 21:13:00,67.6,67.6,30.11,NE,36,7.0,12.0,100,0.01,,---,0.81,VWS V14.00,2013-08-16 01:13:00,
2013-08-15 21:19:00,67.7,67.7,30.11,NE,35,9.0,13.0,100,0.01,,---,0.81,VWS V14.00,2013-08-16 01:19:00,
2013-08-15 21:24:00,67.7,67.7,30.11,NNE,33,9.0,14.0,100,0.01,,---,0.81,VWS V14.00,2013-08-16 01:24:00,
2013-08-15 21:29:00,67.8,67.8,30.12,NE,34,5.0,14.0,100,0.01,,---,0.81,VWS V14.00,2013-08-16 01:29:00,
2013-08-15 21:30:00,67.6,67.6,30.11,NE,45,8.0,14.0,100,0.00,,---,0.81,VWS V14.01,2013-08-16 01:30:00,
2013-08-15 21:34:00,67.8,67.8,30.11,NNE,32,6.0,10.0,100,0.01,,---,0.81,VWS V14.00,2013-08-16 01:34:00,
2013-08-15 21:39:00,67.8,67.8,30.11,NNE,28,11.0,11.0,100,0.01,,---,0.81,VWS V14.00,2013-08-16 01:39:00,
2013-08-15 21:44:00,67.9,67.9,30.11,NE,37,7.0,12.0,100,0.01,,---,0.81,VWS V14.00,2013-08-16 01:44:00,
2013-08-15 21:49:00,67.9,67.9,30.11,NNE,30,9.0,12.0,100,0.00,,---,0.81,VWS V14.00,2013-08-16 01:49:00,
2013-08-15 21:54:00,67.9,67.9,30.11,NNE,28,10.0,13.0,100,0.00,,---,0.81,VWS V14.00,2013-08-16 01:54:00,
2013-08-15 21:59:00,67.9,67.9,30.11,NE,34,8.0,16.0,100,0.00,,---,0.81,VWS V14.00,2013-08-16 01:59:00,
2013-08-15 22:00:00,67.9,67.9,30.11,NNE,22,8.0,16.0,100,0.00,,---,0.81,VWS V14.01,2013-08-16 02:00:00,
2013-08-15 22:04:00,67.9,67.9,30.11,NE,36,6.0,15.0,100,0.00,,---,0.81,VWS V14.00,2013-08-16 02:04:00,
2013-08-15 22:09:00,67.9,67.9,30.11,NNE,25,8.0,16.0,100,0.00,,---,0.81,VWS V14.00,2013-08-16 02:09:00,
2013-08-15 22:14:00,67.8,67.8,30.11,NE,34,10.0,16.0,100,0.00,,---,0.81,VWS V14.00,2013-08-16 02:14:00,
2013-08-15 22:19:00,67.8,67.8,30.11,NE,35,7.0,16.0,100,0.00,,---,0.81,VWS V14.00,2013-08-16 02:19:00,
2013-08-15 22:24:00,67.9,67.9,30.11,NNE,22,10.0,16.0,100,0.00,,---,0.81,VWS V14.00,2013-08-16 02:24:00,
2013-08-15 22:29:00,67.9,67.9,30.11,NNE,29,14.0,16.0,100,0.00,,---,0.81,VWS V14.00,2013-08-16 02:29:00,
2013-08-15 22:30:00,67.9,67.9,30.11,NNE,22,10.0,17.0,100,0.00,,---,0.81,VWS V14.01,2013-08-16 02:30:00,
2013-08-15 22:34:00,68.0,68.0,30.11,NNE,17,10.0,15.0,100,0.00,,---,0.81,VWS V14.00,2013-08-16 02:34:00,
2013-08-15 22:40:00,68.0,68.0,30.11,NNE,26,7.0,15.0,100,0.00,,---,0.81,VWS V14.00,2013-08-16 02:40:00,
2013-08-15 22:45:00,68.1,68.1,30.11,NNE,20,8.0,15.0,100,0.00,,---,0.81,VWS V14.00,2013-08-16 02:45:00,
2013-08-15 22:50:00,68.1,68.1,30.11,NNE,26,11.0,15.0,100,0.00,,---,0.81,VWS V14.00,2013-08-16 02:50:00,
2013-08-15 22:55:00,68.2,68.2,30.11,NNE,31,12.0,15.0,100,0.00,,---,0.81,VWS V14.00,2013-08-16 02:55:00,
2013-08-15 23:00:00,68.2,68.2,30.11,NNE,28,12.0,15.0,100,0.00,,---,0.81,VWS V14.00,2013-08-16 03:00:00,
2013-08-15 23:05:00,68.3,68.3,30.11,NNE,17,9.0,12.0,100,0.00,,---,0.81,VWS V14.00,2013-08-16 03:05:00,
2013-08-15 23:10:00,68.4,68.4,30.10,NNE,24,7.0,12.0,100,0.00,,---,0.81,VWS V14.00,2013-08-16 03:10:00,
2013-08-15 23:15:00,68.4,68.4,30.10,NNE,22,13.0,13.0,100,0.00,,---,0.81,VWS V14.00,2013-08-16 03:15:00,
2013-08-15 23:20:00,68.5,68.5,30.10,NNE,29,12.0,13.0,100,0.00,,---,0.81,VWS V14.00,2013-08-16 03:20:00,
2013-08-15 23:25:00,68.6,68.6,30.10,North,7,9.0,13.0,100,0.00,,---,0.81,VWS V14.00,2013-08-16 03:25:00,
2013-08-15 23:30:00,68.6,68.6,30.10,NNE,12,11.0,11.0,100,0.00,,---,0.81,VWS V14.00,2013-08-16 03:30:00,
2013-08-15 23:35:00,68.7,68.7,30.10,NNE,15,9.0,15.0,100,0.00,,---,0.81,VWS V14.00,2013-08-16 03:35:00,
2013-08-15 23:40:00,68.7,68.7,30.10,NNE,22,7.0,15.0,100,0.00,,---,0.81,VWS V14.00,2013-08-16 03:40:00,
2013-08-15 23:45:00,68.8,68.8,30.10,NNE,32,11.0,16.0,100,0.00,,---,0.81,VWS V14.00,2013-08-16 03:45:00,
2013-08-15 23:50:00,68.8,68.8,30.10,NNE,20,10.0,16.0,100,0.00,,---,0.81,VWS V14.00,2013-08-16 03:50:00,
2013-08-15 23:55:00,68.8,68.8,30.10,NNE,15,9.0,16.0,100,0.00,,---,0.81,VWS V14.00,2013-08-16 03:55:00,